Location: Zagreb
(45.8000°N, 16.0000°E)
Time: 15:52:39
(UTC+02:00)

Transit 2A - Pass Details

Date: 19 August 2022
Orbit: 601 x 956 km, 66.7° (Epoch: 25 September)

Event Time Altitude Azimuth Distance (km) Brightness Sun altitude
Rises 12:56:23 0° 273° (W) 3,005 9.1 56.9°
Reaches altitude 10° 13:00:18 10° 306° (NW) 2,028 8.1 56.9°
Maximum altitude 13:01:58 12° 327° (NNW) 1,891 7.9 56.9°
Drops below altitude 10° 13:03:36 10° 349° (N) 1,989 8.0 56.9°
Sets 13:07:21 0° 22° (NNE) 2,868 8.7 56.9°
